[[{"header":{"parameterUnit":"m.s-1","parameterCategory":1,"la1":30.2991,"la2":30.254,"lo1":-89.0895,"lo2":-89.0444,"dy":0.0017,"dx":0.0017,"nx":28,"ny":28,"refTime":"2025-04-28T21:00:00:Z","depth":0,"parameterNumber":2,"parameterNumberName":"U-component_of_WINDS"},"data":[0,0,0,0,0,0,0,0,0,0,0,0,0,0,0,0,0,0,0,0,0,0,0,0,0,0,0,0,0,0,0,0,0,0,0,0,0,0,0,0,0,0,0,0,0,0,0,0,0,0,0,0,0,0,0,0,0,0,-1.2186,-1.2187,0,-1.2275,-1.2276,-1.2277,-1.2315,-1.2315,-1.2315,-1.2315,-1.2407,-1.2409,-1.2412,0,0,0,0,0,0,0,0,0,0,0,0,0,-1.2052,-1.2054,-1.2186,-1.2187,-1.2188,-1.2275,-1.2276,-1.2277,-1.2315,-1.2315,-1.2315,-1.2315,-1.2406,-1.2409,-1.2412,0,0,0,0,0,0,0,0,0,0,0,0,0,-1.2122,-1.2055,-1.2186,-1.2218,-1.2222,-1.2274,-1.2276,-1.2277,-1.2315,-1.2315,-1.2315,-1.2315,-1.2405,-1.2409,-1.2413,-1.2441,0,0,-1.2424,-1.2426,0,0,0,0,0,0,0,0,-1.2118,-1.2127,-1.2212,-1.2216,-1.222,-1.2284,-1.2262,-1.2332,-1.2315,-1.228,-1.2315,-1.2315,-1.2366,-1.2373,-1.239,-1.2445,-1.2449,-1.2425,-1.2427,-1.2429,-1.243,0,0,0,0,0,0,0,-1.2113,-1.2123,-1.2221,-1.2213,-1.2218,-1.2228,-1.2238,-1.2276,-1.2323,-1.2283,-1.2286,-1.2296,-1.2368,-1.2386,-1.2393,-1.245,-1.2425,-1.2428,-1.243,-1.2432,-1.2533,-1.2533,0,0,0,0,0,0,-1.2103,-1.2119,-1.2218,-1.2224,-1.2167,-1.2231,-1.2242,-1.2263,-1.2323,-1.2332,-1.2296,-1.2297,-1.238,-1.2388,-1.2396,-1.2433,-1.2429,-1.2432,-1.2435,-1.2532,-1.2533,-1.2533,0,0,0,0,0,0,-1.21,-1.2111,-1.2215,-1.2172,-1.2186,-1.2233,-1.2257,-1.2265,-1.2284,-1.2333,-1.2341,-1.2306,-1.238,-1.2391,-1.2429,-1.2437,-1.2434,-1.2438,-1.2532,-1.2533,-1.2533,-1.2507,0,0,0,0,0,0,-1.2096,-1.211,-1.2121,-1.2172,-1.2188,-1.2246,-1.2258,-1.2267,-1.229,-1.2293,-1.2344,-1.2352,-1.2381,-1.2423,-1.2433,-1.2442,-1.2441,-1.2532,-1.2532,-1.2533,-1.2507,-1.2507,-1.2506,0,0,0,0,0,-1.2091,-1.211,-1.2121,-1.2133,-1.2203,-1.2246,-1.2256,-1.2287,-1.229,-1.2302,-1.2333,-1.2351,-1.2434,-1.2427,-1.2438,-1.2449,-1.2531,-1.2532,-1.2533,-1.2508,-1.2507,-1.2506,0,0,0,0,0,0,-1.2059,-1.2118,-1.213,-1.2167,-1.2201,-1.2253,-1.2268,-1.2285,-1.232,-1.2321,-1.236,-1.2371,-1.2406,-1.2431,-1.2422,-1.2479,-1.2484,-1.2487,-1.2461,-1.2461,-1.246,-1.2453,-1.2444,0,0,0,0,0,-1.2056,-1.2086,-1.2136,-1.2163,-1.218,-1.2221,-1.2241,-1.2263,-1.23,-1.2315,-1.2349,-1.2385,-1.242,-1.2442,-1.2476,-1.2511,-1.2523,-1.2524,-1.2523,-1.2522,-1.2525,-1.2545,-1.2546,-1.2536,-1.2536,-1.2536,0,0,-1.2051,-1.2086,-1.2103,-1.2158,-1.2187,-1.2217,-1.2233,-1.2265,-1.2288,-1.232,-1.2358,-1.2385,-1.2428,-1.2464,-1.2483,-1.2487,-1.253,-1.2523,-1.2522,-1.2525,-1.2546,-1.2547,-1.2548,-1.2536,-1.2536,-1.2536,0,0,-1.2056,-1.2086,-1.2112,-1.2141,-1.2185,-1.2212,-1.2218,-1.2267,-1.2286,-1.2325,-1.235,-1.2378,-1.2437,-1.2466,-1.2489,-1.2506,-1.2523,-1.2516,-1.2512,-1.2532,-1.2532,-1.2533,-1.254,-1.2541,-1.2518,-1.2518,-1.2518,0,-1.2044,-1.2091,-1.2124,-1.2154,-1.2178,-1.2207,-1.2234,-1.2261,-1.2314,-1.233,-1.2333,-1.2407,-1.2438,-1.2483,-1.2487,-1.2504,-1.2513,-1.251,-1.253,-1.2531,-1.2532,-1.2539,-1.2541,-1.2517,-1.2517,-1.2517,-1.2517,0,-1.2074,-1.2106,-1.2122,-1.2171,-1.2197,-1.2225,-1.2263,-1.2285,-1.2304,-1.2331,-1.2371,-1.2409,-1.2451,-1.2464,-1.2483,-1.2511,-1.2512,-1.2522,-1.2528,-1.2531,-1.2538,-1.2541,-1.2515,-1.2515,-1.2516,-1.2516,0,0,-1.2062,-1.213,-1.2135,-1.2158,-1.2208,-1.2234,-1.2264,-1.2305,-1.2323,-1.2359,-1.2385,-1.2434,-1.2444,-1.2469,-1.2492,-1.251,-1.2521,-1.2518,-1.2519,-1.2517,-1.2554,-1.2546,-1.2549,-1.2532,-1.2533,-1.2534,-1.2551,0,-1.2075,-1.2129,-1.216,-1.2202,-1.2232,-1.2261,-1.2287,-1.2321,-1.2347,-1.2377,-1.2406,-1.244,-1.245,-1.2465,-1.2484,-1.2515,-1.2529,-1.2515,-1.2558,-1.2559,-1.2546,-1.2552,-1.2544,-1.2559,-1.2554,-1.2554,-1.2554,0,-1.2097,-1.2132,-1.2176,-1.2223,-1.2237,-1.226,-1.2301,-1.2328,-1.2368,-1.2386,-1.2414,-1.2437,-1.247,-1.2473,-1.252,-1.251,-1.2529,-1.2547,-1.2549,-1.2554,-1.2557,-1.2558,-1.2564,-1.2566,-1.2559,-1.2558,-1.2558,0,-1.2085,-1.2142,-1.2177,-1.2195,-1.2251,-1.2266,-1.229,-1.2329,-1.2352,-1.2388,-1.2403,-1.2442,-1.2463,-1.2493,-1.2526,-1.2525,-1.257,-1.2576,-1.2586,-1.2585,-1.2594,-1.2593,-1.2603,-1.2606,-1.2606,-1.2606,-1.2606,0,-1.2096,-1.2122,-1.2172,-1.2193,-1.2223,-1.2258,-1.2288,-1.2314,-1.2348,-1.2376,-1.2403,-1.2428,-1.247,-1.25,-1.2526,-1.2561,-1.257,-1.2586,-1.2593,-1.2584,-1.2582,-1.2597,-1.2597,-1.2607,-1.2606,-1.2606,-1.2606,0,-1.2087,-1.2121,-1.216,-1.221,-1.2223,-1.2243,-1.2285,-1.2307,-1.2334,-1.2368,-1.2378,-1.2421,-1.2458,-1.2494,-1.2544,-1.2561,-1.2596,-1.2605,-1.2583,-1.2587,-1.2595,-1.2594,-1.2616,-1.2621,-1.2619,-1.2619,-1.2619,0,-1.2092,-1.2113,-1.2164,-1.2184,-1.2207,-1.2239,-1.2262,-1.2298,-1.2321,-1.2367,-1.2383,-1.2422,-1.2456,-1.2514,-1.255,-1.2588,-1.2598,-1.2603,-1.2604,-1.2594,-1.2598,-1.2597,-1.2599,-1.2602,-1.2602,-1.2602,-1.2602,0,-1.2098,-1.2114,-1.2146,-1.2184,-1.2211,-1.2243,-1.2276,-1.229,-1.2332,-1.2357,-1.2395,-1.242,-1.2471,-1.2509,-1.2552,-1.2577,-1.2597,-1.2601,-1.2606,-1.2597,-1.2583,-1.2591,-1.2581,-1.2601,-1.2601,-1.2601,-1.2601,-1.2601,-1.2097,-1.2117,-1.2156,-1.2191,-1.2219,-1.2249,-1.2272,-1.2301,-1.2334,-1.2377,-1.2396,-1.2434,-1.2474,-1.2532,-1.2558,-1.2588,-1.2593,-1.2599,-1.2601,-1.2602,-1.26,-1.2578,-1.2596,-1.2596,-1.2597,-1.2597,-1.2597,0,-1.2104,-1.2131,-1.2162,-1.2207,-1.2235,-1.2249,-1.2287,-1.2309,-1.2342,-1.2377,-1.2408,-1.2452,-1.2489,-1.2528,-1.2568,-1.2585,-1.2595,-1.2595,-1.2594,-1.2599,-1.2594,-1.2586,-1.2586,-1.2586,-1.2586,-1.2586,-1.2586,-1.2586,-1.2111,-1.2146,-1.2166,-1.2215,-1.2241,-1.2278,-1.2298,-1.2326,-1.2354,-1.2401,-1.2432,-1.2457,-1.2493,-1.2536,-1.2571,-1.2582,-1.2595,-1.2592,-1.2605,-1.2599,-1.26,-1.26,-1.2593,-1.2595,-1.2595,-1.2608,-1.2608,-1.2608]},{"header":{"parameterUnit":"m.s-1","parameterCategory":1,"la1":30.2991,"la2":30.254,"lo1":-89.0895,"lo2":-89.0444,"dy":0.0017,"dx":0.0017,"nx":28,"ny":28,"refTime":"2025-04-28T21:00:00:Z","depth":0,"parameterNumber":3,"parameterNumberName":"V-component_of_WINDS"},"data":[0,0,0,0,0,0,0,0,0,0,0,0,0,0,0,0,0,0,0,0,0,0,0,0,0,0,0,0,0,0,0,0,0,0,0,0,0,0,0,0,0,0,0,0,0,0,0,0,0,0,0,0,0,0,0,0,0,0,1.9749,1.975,0,1.9762,1.9762,1.9762,1.9725,1.9724,1.9723,1.9722,1.9733,1.9734,1.9735,0,0,0,0,0,0,0,0,0,0,0,0,0,1.9693,1.9694,1.9749,1.975,1.975,1.9761,1.9762,1.9762,1.9726,1.9724,1.9723,1.9722,1.9732,1.9734,1.9735,0,0,0,0,0,0,0,0,0,0,0,0,0,1.9713,1.9695,1.9749,1.9733,1.9732,1.9761,1.9762,1.9762,1.9726,1.9724,1.9722,1.9721,1.9732,1.9734,1.9736,1.9781,0,0,1.9742,1.9742,0,0,0,0,0,0,0,0,1.9712,1.9715,1.9735,1.9734,1.9733,1.974,1.9746,1.9768,1.9726,1.9728,1.9722,1.972,1.9736,1.9738,1.9744,1.9782,1.9782,1.9742,1.9743,1.9744,1.9744,0,0,0,0,0,0,0,1.971,1.9714,1.9754,1.9736,1.9734,1.9725,1.9726,1.975,1.9741,1.9728,1.9725,1.9727,1.9735,1.9742,1.9744,1.9782,1.9742,1.9743,1.9745,1.9745,1.9858,1.9859,0,0,0,0,0,0,1.9711,1.9713,1.9754,1.9754,1.9718,1.9727,1.9728,1.974,1.9741,1.974,1.9729,1.9725,1.9739,1.9741,1.9744,1.9797,1.9744,1.9746,1.9747,1.9856,1.9858,1.986,0,0,0,0,0,0,1.971,1.9715,1.9753,1.9733,1.9737,1.973,1.9743,1.9741,1.9747,1.9742,1.974,1.9737,1.9738,1.9741,1.9772,1.9797,1.9747,1.9748,1.9854,1.9856,1.9859,1.9904,0,0,0,0,0,0,1.9709,1.9715,1.9733,1.9734,1.9738,1.9782,1.9744,1.9742,1.9751,1.9747,1.9749,1.9748,1.9737,1.9769,1.9774,1.9799,1.975,1.9851,1.9855,1.9858,1.99,1.9908,1.9914,0,0,0,0,0,1.9707,1.9745,1.9734,1.9739,1.976,1.9783,1.9786,1.9773,1.9753,1.977,1.9767,1.9748,1.9794,1.9773,1.9778,1.9803,1.985,1.9854,1.9858,1.9897,1.9906,1.9914,0,0,0,0,0,0,1.9746,1.9744,1.9732,1.9772,1.9778,1.9777,1.9799,1.9784,1.9796,1.9791,1.9775,1.9775,1.9809,1.9809,1.9786,1.9847,1.9818,1.9823,1.9846,1.9855,1.9862,1.9861,1.9752,0,0,0,0,0,1.9759,1.9778,1.9776,1.9811,1.9815,1.9806,1.9816,1.9806,1.9811,1.9814,1.9812,1.9818,1.9834,1.9844,1.9858,1.99,1.99,1.992,1.9927,1.9933,1.9938,1.9959,1.9968,1.9873,1.9873,1.9873,0,0,1.9786,1.9788,1.9801,1.9819,1.9822,1.9842,1.9809,1.9831,1.9845,1.9817,1.9846,1.9845,1.9851,1.9887,1.9903,1.9888,1.9964,1.9938,1.9943,1.9944,1.9964,1.9973,1.9981,1.9876,1.9875,1.9875,0,0,1.9846,1.985,1.9879,1.9884,1.989,1.9884,1.9891,1.9893,1.9892,1.9921,1.99,1.9916,1.9944,1.9948,1.9954,2.0016,1.9999,2.0022,2.0058,2.008,2.0087,2.0094,2.0116,2.0124,2.0026,2.0026,2.0026,0,1.9879,1.9909,1.9896,1.992,1.9928,1.9904,1.9933,1.9938,1.9948,1.9954,1.9937,1.9972,1.9973,2.001,2.0026,2.0031,2.0039,2.0021,2.0087,2.0094,2.01,2.012,2.0128,2.0029,2.0029,2.0028,2.0028,0,1.9949,1.997,1.9993,2.0004,2.0015,2.0041,2.0032,2.0044,2.0033,2.0029,2.0059,2.006,2.0074,2.0083,2.0072,2.0118,2.0109,2.009,2.006,2.0112,2.0131,2.0138,2.0033,2.0032,2.0031,2.003,0,0,2.0033,2.0037,2.0046,2.0051,2.0056,2.0072,2.0097,2.0111,2.0122,2.013,2.015,2.0175,2.0157,2.0164,2.0154,2.0173,2.0221,2.0151,2.0151,2.0164,2.0272,2.0286,2.0295,2.021,2.0212,2.0213,2.0272,0,2.0092,2.0136,2.0125,2.0168,2.0187,2.0164,2.0186,2.0192,2.0189,2.0204,2.02,2.0217,2.0194,2.0197,2.0215,2.0212,2.0243,2.0207,2.0229,2.0229,2.0228,2.0305,2.032,2.0375,2.0279,2.028,2.0281,0,2.0166,2.0178,2.0223,2.0226,2.0233,2.0253,2.0265,2.028,2.0286,2.0282,2.029,2.0276,2.0301,2.0271,2.0304,2.028,2.0288,2.0288,2.029,2.0291,2.0258,2.0308,2.0393,2.0401,2.0293,2.0292,2.0291,0,2.0222,2.0249,2.028,2.0285,2.0289,2.0303,2.0305,2.0309,2.0319,2.0329,2.0335,2.0348,2.0355,2.0365,2.0355,2.0335,2.039,2.0359,2.0387,2.0387,2.0399,2.0399,2.0486,2.0405,2.0405,2.0405,2.0405,0,2.0289,2.0317,2.0306,2.0324,2.0356,2.0343,2.0374,2.0373,2.0377,2.0395,2.0376,2.0393,2.0379,2.0395,2.0387,2.0415,2.0419,2.0416,2.0413,2.0417,2.0418,2.0422,2.0418,2.0407,2.0407,2.0406,2.0406,0,2.0357,2.035,2.0382,2.0383,2.0384,2.0407,2.0408,2.0425,2.0421,2.0444,2.0448,2.0441,2.0459,2.045,2.0468,2.0462,2.0499,2.0492,2.0498,2.0496,2.0524,2.0521,2.0616,2.0628,2.054,2.0541,2.0542,0,2.04,2.0421,2.0425,2.0436,2.044,2.0457,2.0467,2.0455,2.0466,2.0474,2.049,2.0506,2.0518,2.0547,2.0543,2.0557,2.0549,2.0582,2.0551,2.0555,2.0549,2.0548,2.055,2.0588,2.0589,2.059,2.059,0,2.0476,2.0472,2.0487,2.0501,2.0513,2.0523,2.0531,2.0541,2.053,2.0542,2.056,2.057,2.0589,2.0605,2.0617,2.0618,2.0602,2.06,2.0607,2.0611,2.0614,2.0613,2.0514,2.0598,2.0597,2.0597,2.0596,2.0596,2.0533,2.0551,2.0556,2.0573,2.0579,2.0587,2.0603,2.0602,2.0617,2.0631,2.0623,2.0644,2.0649,2.0663,2.0667,2.0683,2.067,2.068,2.0683,2.0685,2.0689,2.0612,2.0685,2.0685,2.0684,2.0684,2.0684,0,2.0608,2.061,2.0626,2.0639,2.0653,2.0638,2.0646,2.0658,2.0677,2.0683,2.0696,2.0717,2.0732,2.073,2.0744,2.0757,2.075,2.0761,2.076,2.076,2.07,2.0692,2.0766,2.0766,2.0766,2.0766,2.0766,2.0766,2.0649,2.0678,2.0675,2.0707,2.0709,2.073,2.0736,2.0744,2.0749,2.0773,2.0786,2.0784,2.0787,2.0801,2.0815,2.0813,2.0819,2.0833,2.0829,2.0773,2.0765,2.0757,2.0749,2.0834,2.0834,2.0888,2.0889,2.0889]}]]